星链-3505 (STARLINK-3505 )

导读 | 星芒AI

STARLINK-3505 是 SpaceX Starlink 卫星互联网项目中的第 3505 颗卫星。该卫星属于低轨通信卫星群,旨在为全球用户提供高速、低延迟的互联网服务。它运行在约 550 公里的轨道高度,采用先进的推进系统和激光通信技术,以提高网络效率和稳定性。STARLINK-3505 的发射进一步扩展了 Starlink 网络的覆盖范围,支持更多用户接入服务,特别是在偏远和网络基础设施薄弱的地区。

基本信息
目录编号:
51750
目录名称:
STARLINK-3505
国际标识:
2022-016AN
轨道中心:
EARTH
卫星名称:
星链-3505
卫星全名:
星链-3505 (STARLINK-3505 )
卫星状态:
在轨 (已飞行1398 天)
发射日期:
2022-02-21 UTC
国别 :
美国 (US)
星等 :
--
轨道信息
数据来源 国际轨道数据
星历时间: 2025-12-20T11:32:26+0800
8小时前
查看轨道信息
半长轴: 6917.886km
偏心率: 0.0001389
轨道倾角: 53.219°
近地点辐角 89.781°
升交点赤经 306.209°
平近点角 270.334°
近地点: 538.788km
远地点: 540.71km
周期: 95.438分钟
每日圈数: 15.088384
详细信息
固有亮度:
5
最大亮度:
2.5
卫星平台:
Starlink v1.5
覆盖范围:
全球
运营商:
太空探索技术公司
运营商所在国:
美国
制造商(研发单位):
太空探索技术公司
制造商所在国:
美国
使用方式:
暂无
卫星简介
星链(Starlink)计划是由太空探索技术公司(SpaceX)提出的一个巨型低轨卫星互联网星座项目,计划在2019年至2024年间在太空搭建由约1.2万颗卫星组成的“星链”网络,其中1584颗将部署在地球上空550千米处的近地轨道,并从2020年开始工作。该卫星仍在工作。
2D轨道图
3D轨道图
轨道高度分析图
轨道倾角分析图
轨道综合分析图
查看轨道综合分析图